TimeAKST,TemperatureF,Dew PointF,Humidity,Sea Level PressureIn,VisibilityMPH,Wind Direction,Wind SpeedMPH,Gust SpeedMPH,PrecipitationIn,Events,Conditions,WindDirDegrees,DateUTC
12:02 AM,33.8,30.2,87,29.72,2.0,SSE,12.7,25.3,0.01,Snow,Light Snow,160,2012-12-06 09:02:00
12:07 AM,33.8,30.2,87,29.73,0.8,South,12.7,25.3,0.01,Snow,Light Snow,190,2012-12-06 09:07:00
12:12 AM,32.0,30.2,93,29.73,0.5,SSE,10.4,19.6,0.03,Fog-Snow,Snow,160,2012-12-06 09:12:00
12:21 AM,33.8,32.0,93,29.72,1.2,East,10.4,-,0.03,Snow,Light Snow,90,2012-12-06 09:21:00
12:29 AM,32.0,32.0,100,29.73,3.0,East,9.2,-,0.03,Snow,Light Snow,90,2012-12-06 09:29:00
12:53 AM,30.9,28.9,92,29.73,10.0,East,8.1,-,0.03,,Partly Cloudy,80,2012-12-06 09:53:00
1:49 AM,33.8,28.4,81,29.73,4.0,East,6.9,-,0.00,Snow,Light Snow,90,2012-12-06 10:49:00
1:53 AM,33.1,28.9,85,29.72,2.0,ESE,9.2,-,0.01,Snow,Light Snow,120,2012-12-06 10:53:00
1:57 AM,33.8,28.4,81,29.72,1.2,East,8.1,-,0.00,Snow,Light Snow,100,2012-12-06 10:57:00
2:05 AM,33.8,28.4,81,29.72,2.0,East,6.9,-,0.00,Snow,Light Snow,100,2012-12-06 11:05:00
2:16 AM,32.0,28.4,87,29.72,1.8,East,4.6,-,0.00,Snow,Light Snow,80,2012-12-06 11:16:00
2:32 AM,33.8,30.2,87,29.72,2.0,ESE,11.5,-,0.00,Snow,Heavy Snow,110,2012-12-06 11:32:00
2:46 AM,32.0,30.2,93,29.72,1.8,East,6.9,-,0.01,Snow,Light Snow,90,2012-12-06 11:46:00
2:49 AM,32.0,30.2,93,29.72,2.5,East,5.8,-,0.01,Snow,Light Snow,80,2012-12-06 11:49:00
3:16 AM,32.0,28.4,87,29.72,1.8,ESE,6.9,-,0.01,Snow,Light Snow,110,2012-12-06 12:16:00
3:24 AM,33.8,30.2,87,29.72,0.8,SE,11.5,-,0.01,Snow,Light Snow,140,2012-12-06 12:24:00
3:37 AM,32.0,30.2,93,29.72,0.5,ESE,10.4,-,0.03,Fog-Snow,Snow,120,2012-12-06 12:37:00
3:53 AM,32.0,32.0,100,29.72,0.8,ESE,12.7,-,0.04,Snow,Light Snow,110,2012-12-06 12:53:00
4:00 AM,32.0,32.0,100,29.72,1.5,East,11.5,-,0.00,Snow,Light Snow,100,2012-12-06 13:00:00
4:03 AM,32.0,32.0,100,29.72,2.0,ESE,11.5,-,0.00,Snow,Light Snow,110,2012-12-06 13:03:00
4:12 AM,32.0,30.2,93,29.72,6.0,East,12.7,-,0.00,Snow,Light Snow,100,2012-12-06 13:12:00
4:27 AM,33.8,30.2,87,29.72,10.0,East,9.2,-,0.00,,Overcast,100,2012-12-06 13:27:00
4:32 AM,33.8,30.2,87,29.72,10.0,East,11.5,-,0.00,,Overcast,100,2012-12-06 13:32:00
4:42 AM,33.8,28.4,81,29.71,10.0,East,10.4,-,0.00,,Overcast,100,2012-12-06 13:42:00
4:53 AM,33.1,28.9,85,29.71,10.0,East,12.7,-,0.00,,Overcast,100,2012-12-06 13:53:00
5:32 AM,33.8,28.4,81,29.72,5.0,SE,11.5,-,0.00,Snow,Light Snow,130,2012-12-06 14:32:00
5:38 AM,33.8,28.4,81,29.72,2.5,SE,12.7,-,0.00,Snow,Light Snow,130,2012-12-06 14:38:00
5:53 AM,33.1,30.0,89,29.72,1.5,East,11.5,-,0.00,Snow,Light Snow,90,2012-12-06 14:53:00
6:17 AM,32.0,30.2,93,29.72,2.0,East,9.2,-,0.04,Snow,Light Snow,100,2012-12-06 15:17:00
6:25 AM,32.0,30.2,93,29.72,5.0,East,11.5,-,0.04,Snow,Light Snow,100,2012-12-06 15:25:00
6:44 AM,32.0,30.2,93,29.72,9.0,East,9.2,-,0.04,,Overcast,90,2012-12-06 15:44:00
6:53 AM,32.0,30.0,92,29.72,10.0,East,8.1,-,0.04,,Overcast,100,2012-12-06 15:53:00
7:53 AM,34.0,28.9,82,29.72,10.0,Calm,Calm,-,0.00,,Overcast,0,2012-12-06 16:53:00
8:05 AM,33.8,28.4,81,29.72,10.0,East,4.6,-,N/A,,Overcast,100,2012-12-06 17:05:00
8:26 AM,32.0,28.4,87,29.72,10.0,East,5.8,-,N/A,,Overcast,80,2012-12-06 17:26:00
8:53 AM,32.0,28.9,88,29.72,10.0,East,6.9,-,N/A,,Mostly Cloudy,100,2012-12-06 17:53:00
9:53 AM,33.1,28.9,85,29.71,10.0,ESE,6.9,-,N/A,,Overcast,110,2012-12-06 18:53:00
10:53 AM,35.1,28.9,78,29.71,10.0,ESE,9.2,-,N/A,,Overcast,120,2012-12-06 19:53:00
11:53 AM,36.0,28.0,73,29.69,10.0,East,8.1,-,N/A,,Overcast,100,2012-12-06 20:53:00
12:53 PM,37.0,27.0,67,29.66,10.0,SE,12.7,-,N/A,,Overcast,130,2012-12-06 21:53:00
1:53 PM,37.0,28.0,70,29.63,10.0,ESE,16.1,-,N/A,,Overcast,120,2012-12-06 22:53:00
2:53 PM,36.0,27.0,70,29.60,10.0,East,10.4,-,N/A,,Overcast,100,2012-12-06 23:53:00
3:53 PM,37.0,27.0,67,29.59,10.0,ESE,12.7,-,N/A,,Overcast,120,2012-12-07 00:53:00
4:53 PM,37.0,26.1,65,29.55,10.0,East,11.5,-,N/A,,Overcast,90,2012-12-07 01:53:00
5:53 PM,37.0,28.0,70,29.52,10.0,ESE,23.0,27.6,N/A,,Overcast,110,2012-12-07 02:53:00
6:53 PM,37.9,28.9,70,29.51,10.0,SE,13.8,21.9,N/A,,Overcast,130,2012-12-07 03:53:00
7:53 PM,37.0,28.9,73,29.49,10.0,ESE,11.5,-,N/A,,Overcast,110,2012-12-07 04:53:00
8:53 PM,37.0,28.9,73,29.49,10.0,ESE,16.1,-,N/A,,Partly Cloudy,120,2012-12-07 05:53:00
9:53 PM,37.0,28.0,70,29.51,10.0,SE,10.4,-,N/A,,Overcast,130,2012-12-07 06:53:00
10:53 PM,36.0,28.9,76,29.52,10.0,ESE,16.1,23.0,N/A,,Overcast,120,2012-12-07 07:53:00
11:31 PM,35.6,30.2,81,29.54,10.0,SE,19.6,23.0,0.00,Snow,Light Snow,130,2012-12-07 08:31:00
11:41 PM,33.8,32.0,93,29.55,1.8,SE,16.1,24.2,0.00,Snow,Light Snow,130,2012-12-07 08:41:00
11:49 PM,33.8,33.8,100,29.55,2.5,ESE,12.7,-,0.00,Snow,Light Snow,120,2012-12-07 08:49:00
11:53 PM,34.0,33.1,96,29.55,4.0,ESE,13.8,-,0.01,Snow,Light Snow,110,2012-12-07 08:53:00